Regional Weather Roundup
Issued by NWS Kansas City/Pleasant Hill, MO

Home | Current Version | Previous Version | Text Only | Print | Product List | Glossary On
Versions: 1 2 3 4 5 6 7 8 9 10 11 12 13 14 15 16 17 18 19 20 21 22 23 24 25 26 27
000
ASUS43 KEAX 200710
RWREAX

WEATHER ROUNDUP FOR EASTERN KANSAS AND NORTHWEST MISSOURI
NATIONAL WEATHER SERVICE KANSAS CITY/PLEASANT HILL MO
200 AM CDT FRI OCT 20 2017

KSZ040-057-103>105-MOZ028-029-037-043-200800-
...KANSAS CITY METROPOLITAN AREA...

CITY           SKY/WX    TMP DP  RH WIND       PRES   REMARKS
K.C. INTL      FAIR      61  53  75 S14       30.08S
K.C. DOWNTOWN  FAIR      62  53  72 SW8       30.08S
LEES SUMMIT    FAIR      62  53  72 SW12      30.10S
OLATHE - IXD   FAIR      57  52  83 S10       30.09S
OLATHE - OJC   FAIR      57  52  83 S7        30.09S
LAWRENCE       FAIR      60  53  77 S7        30.07F

$$

MOZ001>008-011>017-020>025-030>033-038>040-044>046-053-054-200800-
...NORTHERN AND CENTRAL MISSOURI...

CITY           SKY/WX    TMP DP  RH WIND       PRES   REMARKS
ST. JOSEPH     FAIR      57  53  86 S6        30.07R
MOSBY          FAIR      52  50  93 CALM      30.09S
WARRENSBURG    FAIR      54  50  87 S5        30.10F
WHITEMAN AFB   CLEAR     53  49  85 S10       30.07S
CLINTON        FAIR      54  50  87 S5        30.13R
SEDALIA        FAIR      61  51  70 S10       30.12S
WARSAW         NOT AVBL
CHILLICOTHE      N/A     51  50  96 CALM      30.10R
KIRKSVILLE     FAIR      57  52  83 S6        30.10S

$$

MOZ041-047>049-056>058-063>065-088>090-097-200800-
...EASTERN AND SOUTHERN MISSOURI...

CITY           SKY/WX    TMP DP  RH WIND       PRES   REMARKS
ST. LOUIS INTL FAIR      62  51  67 S5        30.16S
SPIRIT OF STL  FAIR      50  49  96 CALM      30.15S FOG
COLUMBIA       FAIR      57  49  74 S6        30.13S
JEFFERSON CITY FAIR      51  48  89 E3        30.13S
ROLLA          FAIR      61  51  70 S13       30.16S
OSAGE BEACH    FAIR      57  49  74 S6        30.15R
SPRINGFIELD    FAIR      57  50  77 S9        30.14S
BRANSON        FAIR      54  48  82 CALM      30.18R
JOPLIN         FAIR      56  52  86 S8        30.14S
WEST PLAINS    FAIR      57  49  74 S3        30.20S

$$

IAZ060-094-KSZ022-034>040-054-083-096-NEZ052-066-093-200800-
...KANSAS...SOUTHEAST NEBRASKA AND IOWA...

CITY           SKY/WX    TMP DP  RH WIND       PRES   REMARKS
TOPEKA         FAIR      62  55  77 S7        30.05F
MANHATTAN      FAIR      60  53  77 SW8       30.03S
EMPORIA        FAIR      57  52  83 S15       30.07S
CHANUTE        FAIR      54  50  86 SE7       30.11S
WICHITA        FAIR      59  55  87 S10       30.04F
OMAHA          FAIR      59  50  72 SE10      29.99R
LINCOLN        FAIR      61  49  64 S14       29.98S
FALLS CITY     FAIR      59  52  77 S7        30.03S
LAMONI         FAIR      57  51  80 S9        30.06S
DES MOINES     FAIR      59  52  77 S10       30.02S

$$





USA.gov is the U.S. government's official web portal to all federal, state and local government web resources and services.